Find Qianfan Jigui 01-09

NORAD ID: 60387 Int'l Des: 2024-140 Owner: YUANX Country: CN Constellation: qianfan operational
LEOCIRCULARPOLAR

リアルタイム位置

3D地球を読み込み中...

Qianfan Jigui 01-09について

説明を読み込み中...

次回通過

Passes for default location (London). Set your location on the main map for personalized predictions.

高度履歴

Loading altitude history...

軌道要素

1 60387U 24140J 26106.77790811 .00000128 00000-0 17972-3 0 9990
2 60387 88.9682 286.3796 0015974 190.0919 169.9914 13.51007811 84214
Epoch: Apr 16, 2026 • Age: 8 hours

現在のステータス

高度 1078.8 km
速度 7.32 km/s
衛星直下点 70.81°N, 136.63°W
打ち上げ日 Aug 6, 2024
運用期間 1.6 years
タイプ internet

技術仕様

分類 Payload
質量 267.00 kg
乾燥質量 267.00 kg
総質量 267.00 kg
長さ 0.30 m
直径 3.00 m
スパン 10.00 m
形状 Box+pan
製造者 SECM
バスタイプ Qianfan
フェーズステータス In Orbit
所有者/国 YUANX/CN

Most Searched